Regional Weather Roundup
Issued by NWS

Home | Current Version | Previous Version | Graphics & Text | Print | Product List | Glossary On
Versions: 1 2 3 4 5 6 7 8 9 10 11 12 13 14 15 16 17 18 19 20 21 22 23 24 25 26 27 28 29 30 31 32 33 34 35 36 37 38 39 40 41 42 43 44 45 46 47 48 49 50
000
ASUS43 KMKX 232100
RWRWI

WISCONSIN REGIONAL WEATHER ROUNDUP
NATIONAL WEATHER SERVICE MILWAUKEE/SULLIVAN WI
300 PM CST THU NOV 23 2017

NOTE: "FAIR" INDICATES FEW OR NO CLOUDS BELOW 12,000 FEET WITH NO
SIGNIFICANT WEATHER AND/OR OBSTRUCTIONS TO VISIBILITY.

WIZ001-002-006>008-014>016-023>028-232200-
NORTHWEST WISCONSIN

CITY           SKY/WX    TMP DP  RH WIND       PRES   REMARKS
SUPERIOR ARPT  SUNNY     39  24  55 SW8       29.78F WCI  34
ASHLAND        SUNNY     41  21  44 SW10      29.79F
HAYWARD        SUNNY     41  21  44 SW7       29.81F
SIREN          SUNNY     40  21  47 S8        29.82F WCI  35
CUMBERLAND     SUNNY     39  21  48 SW9       29.83S WCI  33
RICE LAKE      SUNNY     42  22  46 SW7       29.85S
CHETEK         SUNNY     41  23  47 SW5       29.84S
LADYSMITH      SUNNY     41  22  47 SW7       29.84F
EAU CLAIRE     NOT AVBL
MENOMONIE      SUNNY     44  20  39 S7        29.85F
NEW RICHMOND   SUNNY     42  20  40 SW6       29.84F
OSCEOLA        SUNNY     43  23  44 SW6       29.86F
$$

WIZ003>005-009-010-017-018-232200-
NORTH CENTRAL WISCONSIN

CITY           SKY/WX    TMP DP  RH WIND       PRES   REMARKS
MANITOWISH WTR SUNNY     38  23  56 SW7       29.79S WCI  32
ARBOR VITAE    SUNNY     39  24  55 W6        29.80R WCI  35
WOODRUFF       SUNNY     39  24  55 W6        29.80R WCI  35
RHINELANDER    SUNNY     40  24  53 W6        29.81F
EAGLE RIVER    SUNNY     38  22  52 W6        29.79F WCI  33
LAND O LAKES   CLEAR     39  21  49 SW5       29.80F
PHILLIPS       SUNNY     38  23  54 SW7       29.80F WCI  33
TOMAHAWK       SUNNY     39  22  49 CALM      29.82S
MEDFORD        SUNNY     39  21  49 SW6       29.82S WCI  35
MERRILL        SUNNY     41  23  48 W8        29.83S
$$

WIZ029-030-035-036-043>047-232200-
CENTRAL WISCONSIN

CITY           SKY/WX    TMP DP  RH WIND       PRES   REMARKS
WAUSAU         SUNNY     40  21  46 W3        29.83S
MOSINEE        MOSUNNY   39  21  48 W6        29.85F WCI  35
MARSHFIELD     SUNNY     41  20  43 W6        29.84S
STEVENS POINT  SUNNY     40  20  45 W6        29.86S
WAUPACA        SUNNY     45  20  36 W6        29.86F
WAUTOMA        SUNNY     44  20  38 W9        29.88R
WISC RAPIDS    SUNNY     42  21  43 SW6       29.86F
CAMP DOUGLAS   SUNNY     44  21  39 W3        29.86F
$$

WIZ011>013-019>022-031-037>040-048>050-232200-
NORTHEAST WISCONSIN

CITY           SKY/WX    TMP DP  RH WIND       PRES   REMARKS
ANTIGO         CLOUDY    38  23  53 W9        29.83S WCI  32
SHAWANO        SUNNY     44  20  38 W5        29.86R
OCONTO         SUNNY     40  20  44 W8        29.85F
STURGEON BAY   CLEAR     39  21  48 SW9       29.86F WCI  33
GREEN BAY      SUNNY     42  23  46 W7        29.87S
MANITOWOC      SUNNY     41  22  46 W9        29.88F
APPLETON       MOSUNNY   41  16  36 SW7       29.84F
CLINTONVILLE   SUNNY     43  18  36 NW6       29.85F
OSHKOSH        SUNNY     42  22  44 W5        29.87F
$$

WIZ032>034-041-042-053>061-232200-
SOUTHWEST WISCONSIN

CITY           SKY/WX    TMP DP  RH WIND       PRES   REMARKS
LA CROSSE      SUNNY     46  22  38 S7        29.88F
SPARTA         SUNNY     44  23  44 SW3       29.88F
VIROQUA        SUNNY     42  25  49 CALM      29.86F
BOSCOBEL       SUNNY     48  22  35 VRB5      29.89F
PRAIRIE DU CHI SUNNY     46  22  38 CALM      29.89F
PLATTEVILLE    SUNNY     45  26  47 W5        29.89F
$$

WIZ056-057-062-063-064-067-068-232200-
SOUTH CENTRAL WISCONSIN

CITY           SKY/WX    TMP DP  RH WIND       PRES   REMARKS
REEDSBURG      SUNNY     44  23  43 W5        29.88R
BARABOO/DELLS  SUNNY     43  20  39 W5        29.88R
LONE ROCK      NOT AVBL
MINERAL POINT  SUNNY     45  25  45 W6        29.88S
MADISON        SUNNY     43  22  43 SW5       29.89S
MIDDLETON      SUNNY     47  22  38 W9        29.89S
WATERTOWN      SUNNY     43  23  44 SW5       29.87F
MONROE         SUNNY     43  23  45 W7        29.89S
JANESVILLE     SUNNY     46  23  39 W7        29.89F
$$

WIZ051-052-058>065-066-070>072-232200-
SOUTHEAST WISCONSIN

CITY           SKY/WX    TMP DP  RH WIND       PRES   REMARKS
MILWAUKEE      MOSUNNY   45  23  42 SW7       29.89S
WAUKESHA       SUNNY     41  21  45 SW8       29.89F
MILWAUKEE/TIMM SUNNY     45  18  33 W6        29.89S
RACINE         SUNNY     44  23  43 W6        29.91S
BURLINGTON     SUNNY     46  29  50 SW9       29.90S
KENOSHA        SUNNY     45  24  43 W12       29.90R
FOND DU LAC    SUNNY     43  20  39 W6        29.87F
SHEBOYGAN      SUNNY     42  23  46 W6        29.88S
WEST BEND      SUNNY     41  21  45 W7        29.88S
JUNEAU         SUNNY     41  22  47 SW6       29.88F
$$

LSZ147-162-232200-
LAKE SUPERIOR

STATION/POSITION TIME  TEMP    WIND        PRES    WAVE
                       AIR SEA DIR/SP/G            HT/PER
                 (UTC) (F)     (DEG/KT/KT) (MB)    (FT/S)
DEVILS ISLAND    2000   34     240/ 17/ 21 1009.8F
SAXON HARBOR     2040   42     220/  3/  7 1008.5F
$$

LMZ867-665-643>646-232200-
LAKE MICHIGAN

STATION/POSITION TIME  TEMP    WIND        PRES    WAVE
                       AIR SEA DIR/SP/G            HT/PER
                 (UTC) (F)     (DEG/KT/KT) (MB)    (FT/S)
N MID LAKE BUOY  1950   37 47  240/ 16/ 17 1012.2S   3/ 4
NORTHPORT PIER   2040   40     250/  3/  8 1010.8F
KEWAUNEE LAKESHO 2030   42     260/  7/ 10 1010.8F
SHEBOYGAN LAKESH 2000   41     220/  9/ 10 1012.2F
PORT WASHINGTON  2040   43     250/  4/ 10 1013.2R
MILWAUKEE LAKESH 2040   44     240/  7/ 10   N/A
S MID LAKE BUOY  1950   40 47  260/ 12/ 16 1013.7F   3/ 5
KENOSHA   LAKESH 2000   44     260/  9/ 12 1012.5
$$

TC  - TEMPERATURE IN CELSIUS
VSB - VISIBILITY IN STATUTE MILES
WCI - WIND CHILL INDEX
HX  - HEAT INDEX





USA.gov is the U.S. government's official web portal to all federal, state and local government web resources and services.